[[{"header":{"parameterUnit":"m.s-1","parameterCategory":1,"la1":30.2992,"la2":30.254,"lo1":-89.0895,"lo2":-89.0443,"dy":0.0025,"dx":0.0025,"nx":19,"ny":19,"refTime":"2026-05-12T03:00:00:Z","depth":0,"parameterNumber":2,"parameterNumberName":"U-component_of_WINDS"},"data":[0,0,0,1.5384,1.5388,1.5578,1.5579,1.5826,1.5828,0,0,0,0,0,0,0,0,0,0,0,1.5324,1.5325,1.5384,1.5388,1.5578,1.5579,1.5825,1.5828,0,0,0,0,0,0,0,0,0,0,0,1.5323,1.5325,1.5327,1.5389,1.5578,1.5579,1.5825,1.5682,0,0,0,0,0,0,0,0,0,0,1.5497,1.5436,1.5324,1.5327,1.539,1.5578,1.5579,1.5675,1.5691,1.5739,0,1.5776,0,1.5806,1.5844,1.5845,0,0,0,1.5393,1.5423,1.5477,1.5327,1.5392,1.5577,1.5494,1.5684,1.5701,1.576,1.578,1.5789,1.581,1.5846,1.5847,1.6103,1.6104,0,0,1.5382,1.5357,1.5464,1.5488,1.5452,1.5488,1.55,1.5694,1.5716,1.5781,1.5795,1.5814,1.5847,1.5849,1.6102,1.6103,0,0,0,1.5349,1.535,1.5399,1.5478,1.5512,1.5493,1.5507,1.5708,1.5726,1.5798,1.5817,1.5849,1.5852,1.6101,1.6102,1.6127,0,0,0,1.5343,1.533,1.5394,1.5381,1.5508,1.5611,1.5515,1.5712,1.5735,1.5815,1.5849,1.5854,1.61,1.6102,1.6124,1.6144,0,0,0,1.5313,1.5327,1.5352,1.5379,1.5459,1.5608,1.5637,1.5718,1.5746,1.5845,1.5855,1.6099,1.6101,1.6121,1.6139,1.6206,0,0,0,1.5275,1.5372,1.5352,1.5469,1.5458,1.5619,1.5636,1.5759,1.5847,1.585,1.61,1.6102,1.612,1.6137,1.6202,1.6258,1.6277,0,0,1.5384,1.5384,1.5455,1.5443,1.5601,1.5593,1.5758,1.5863,1.5898,1.6034,1.6041,1.6125,1.6139,1.6205,1.6394,1.6409,0,0,0,1.5481,1.5532,1.558,1.5659,1.574,1.5814,1.5896,1.5936,1.6052,1.596,1.6166,1.6176,1.6216,1.6244,1.6257,1.6295,1.6113,1.6113,1.6113,1.5601,1.5637,1.5759,1.5819,1.5897,1.5982,1.6051,1.6121,1.6136,1.6184,1.6225,1.6335,1.6366,1.6376,1.6415,1.6256,1.6256,1.6256,1.6256,1.5766,1.5846,1.5863,1.5987,1.6027,1.6134,1.6222,1.623,1.6339,1.6306,1.6343,1.6306,1.6392,1.6428,1.6258,1.6258,1.6258,1.6257,1.6257,1.585,1.5895,1.5939,1.6061,1.6152,1.6212,1.6316,1.635,1.6383,1.6419,1.6469,1.6469,1.6476,1.644,1.644,1.6441,1.6441,1.6441,1.6442,1.5921,1.597,1.6051,1.6146,1.6204,1.6285,1.6373,1.6433,1.6509,1.6526,1.6527,1.6541,1.6392,1.6355,1.6448,1.6447,1.6446,1.6445,1.6445,1.6078,1.6048,1.6172,1.623,1.6347,1.6438,1.648,1.66,1.6654,1.6706,1.6712,1.6595,1.66,1.659,1.656,1.67,1.67,1.6701,1.6701,1.6151,1.6155,1.6292,1.6382,1.6476,1.6526,1.6673,1.6745,1.6816,1.6854,1.6839,1.6801,1.6789,1.6801,1.6787,1.676,1.6948,1.6948,1.6948,1.6252,1.6267,1.6382,1.6446,1.6541,1.6625,1.6765,1.6874,1.6949,1.6959,1.6886,1.6875,1.6815,1.6793,1.6802,1.6778,1.6729,0,0]},{"header":{"parameterUnit":"m.s-1","parameterCategory":1,"la1":30.2992,"la2":30.254,"lo1":-89.0895,"lo2":-89.0443,"dy":0.0025,"dx":0.0025,"nx":19,"ny":19,"refTime":"2026-05-12T03:00:00:Z","depth":0,"parameterNumber":3,"parameterNumberName":"V-component_of_WINDS"},"data":[0,0,0,-0.4349,-0.4344,-0.4103,-0.4102,-0.3793,-0.3791,0,0,0,0,0,0,0,0,0,0,0,-0.442,-0.4418,-0.4349,-0.4343,-0.4104,-0.4102,-0.3794,-0.3791,0,0,0,0,0,0,0,0,0,0,0,-0.4421,-0.4418,-0.4416,-0.4342,-0.4104,-0.4102,-0.3795,-0.3976,0,0,0,0,0,0,0,0,0,0,-0.421,-0.4275,-0.4419,-0.4416,-0.4341,-0.4104,-0.4102,-0.3985,-0.3965,-0.3902,0,-0.3847,0,-0.3814,-0.377,-0.3769,0,0,0,-0.4343,-0.4292,-0.4228,-0.4415,-0.4339,-0.4104,-0.4212,-0.3974,-0.3951,-0.3875,-0.3842,-0.3831,-0.3809,-0.3768,-0.3766,-0.3408,-0.3406,0,0,-0.4356,-0.4376,-0.4243,-0.4213,-0.4251,-0.4219,-0.4204,-0.396,-0.3925,-0.3841,-0.3824,-0.3804,-0.3766,-0.3764,-0.3409,-0.3407,0,0,0,-0.4395,-0.4385,-0.4327,-0.4226,-0.4183,-0.4212,-0.4195,-0.3936,-0.3915,-0.382,-0.38,-0.3764,-0.376,-0.3411,-0.3408,-0.3345,0,0,0,-0.4403,-0.4408,-0.4333,-0.4343,-0.4187,-0.4056,-0.4176,-0.3932,-0.3904,-0.3802,-0.3764,-0.3757,-0.3413,-0.341,-0.3351,-0.3311,0,0,0,-0.4436,-0.4412,-0.4377,-0.4344,-0.4242,-0.406,-0.4025,-0.3926,-0.3891,-0.3769,-0.3756,-0.3414,-0.341,-0.3356,-0.3319,-0.3221,0,0,0,-0.4476,-0.4323,-0.4376,-0.4198,-0.4244,-0.4024,-0.4027,-0.3861,-0.3748,-0.3762,-0.3412,-0.3409,-0.3357,-0.3324,-0.3227,-0.3141,-0.3108,0,0,-0.4294,-0.4302,-0.4196,-0.4236,-0.4012,-0.4059,-0.3824,-0.3701,-0.3671,-0.3497,-0.3488,-0.3349,-0.3319,-0.3223,-0.292,-0.2894,0,0,0,-0.4145,-0.4068,-0.4005,-0.3899,-0.3804,-0.3718,-0.3629,-0.3584,-0.3436,-0.3586,-0.3288,-0.327,-0.3212,-0.317,-0.3148,-0.3096,-0.3391,-0.3391,-0.3392,-0.3913,-0.3885,-0.3707,-0.365,-0.3548,-0.346,-0.3374,-0.3298,-0.3297,-0.3228,-0.3174,-0.2995,-0.2946,-0.2929,-0.2876,-0.3129,-0.3129,-0.3129,-0.3129,-0.3642,-0.3529,-0.3535,-0.3364,-0.3335,-0.3191,-0.3101,-0.3106,-0.2967,-0.3032,-0.2979,-0.305,-0.2902,-0.2854,-0.3123,-0.3124,-0.3125,-0.3125,-0.3126,-0.3485,-0.3426,-0.3376,-0.3221,-0.3106,-0.3054,-0.2921,-0.2899,-0.2878,-0.2826,-0.2768,-0.2768,-0.2765,-0.2801,-0.28,-0.2799,-0.2799,-0.2798,-0.2798,-0.3341,-0.3287,-0.3177,-0.3065,-0.2995,-0.2901,-0.2813,-0.2743,-0.2661,-0.2655,-0.2655,-0.2661,-0.2894,-0.2952,-0.2788,-0.279,-0.2791,-0.2792,-0.2793,-0.3072,-0.313,-0.2961,-0.2892,-0.2759,-0.2645,-0.2622,-0.2482,-0.2422,-0.2357,-0.2375,-0.2552,-0.2558,-0.2575,-0.2622,-0.2383,-0.2383,-0.2383,-0.2383,-0.2937,-0.294,-0.2763,-0.2653,-0.2543,-0.2505,-0.2315,-0.2247,-0.2184,-0.2145,-0.2178,-0.224,-0.2259,-0.2253,-0.2278,-0.2321,-0.2011,-0.201,-0.201,-0.2769,-0.2761,-0.2602,-0.2544,-0.2439,-0.235,-0.217,-0.2043,-0.1985,-0.1994,-0.2114,-0.213,-0.223,-0.2264,-0.2272,-0.2311,-0.239,0,0]}]]